When you browse on this site, cookies collect data to enhance your experience and personalize the content and advertising you see.
Visit our Privacy Policy to learn more. By continuing to use the site, you agree to this use of cookies and data.
  • In Hungary
  • List of Countries
  • For 7 days
  • Water Temperature
  • Satellite Maps
  • Weather Map
  • News
  • Weather Widgets
  • user-avatar
    Login

    Hourly Weather Murrieta

    Today, 18 July, Thursday

    Time Temperature Precipitation Wind Pressure Humidity
    00:00 +15°C° 0 mm 0 mps 726 mmHg 89%
    01:00 +15°C° 0 mm 0 mps 726 mmHg 89%
    02:00 +15°C° 0 mm 0 mps 726 mmHg 89%
    03:00 +14°C° 0 mm 0 mps 726 mmHg 88%
    04:00 +14°C° 0 mm 0 mps 726 mmHg 88%
    05:00 +17°C° 0 mm 0 mps 726 mmHg 78%
    06:00 +19°C° 0 mm 0 mps 727 mmHg 69%
    07:00 +22°C° 0 mm 0 mps 727 mmHg 59%
    08:00 +26°C° 0 mm 1 mps 727 mmHg 53%
    09:00 +28°C° 0 mm 2 mps 727 mmHg 47%
    10:00 +30°C° 0 mm 2 mps 727 mmHg 40%
    11:00 +31°C° 0 mm 3 mps 727 mmHg 38%
    12:00 +33°C° 0 mm 4 mps 727 mmHg 35%
    13:00 +34°C° 0 mm 4 mps 726 mmHg 33%
    14:00 +33°C° 0 mm 4 mps 726 mmHg 34%
    15:00 +32°C° 0 mm 4 mps 726 mmHg 36%
    16:00 +30°C° 0 mm 4 mps 725 mmHg 38%
    17:00 +27°C° 0 mm 3 mps 725 mmHg 49%
    18:00 +24°C° 0 mm 2 mps 725 mmHg 61%
    19:00 +20°C° 0 mm 2 mps 724 mmHg 72%
    20:00 +19°C° 0 mm 1 mps 725 mmHg 77%
    21:00 +18°C° 0 mm 1 mps 725 mmHg 82%
    22:00 +15°C° 0 mm 0 mps 725 mmHg 86%
    23:00 +14°C° 0 mm 0 mps 725 mmHg 86%

    Tomorrow, 19 July, Friday

    Time Temperature Precipitation Wind Pressure Humidity
    00:00 +14°C° 0 mm 0 mps 725 mmHg 86%
    01:00 +14°C° 0 mm 0 mps 724 mmHg 86%
    02:00 +14°C° 0 mm 0 mps 724 mmHg 86%
    03:00 +13°C° 0 mm 0 mps 724 mmHg 86%
    04:00 +13°C° 0 mm 0 mps 724 mmHg 86%
    05:00 +15°C° 0 mm 0 mps 725 mmHg 76%
    06:00 +18°C° 0 mm 0 mps 725 mmHg 66%
    07:00 +20°C° 0 mm 0 mps 725 mmHg 57%
    08:00 +25°C° 0 mm 1 mps 726 mmHg 49%
    09:00 +27°C° 0 mm 2 mps 726 mmHg 42%
    10:00 +29°C° 0 mm 2 mps 726 mmHg 34%
    11:00 +30°C° 0 mm 3 mps 726 mmHg 33%
    12:00 +31°C° 0 mm 3 mps 725 mmHg 32%
    13:00 +33°C° 0 mm 4 mps 725 mmHg 31%
    14:00 +32°C° 0 mm 4 mps 725 mmHg 34%
    15:00 +30°C° 0 mm 4 mps 724 mmHg 37%
    16:00 +29°C° 0 mm 4 mps 724 mmHg 39%
    17:00 +26°C° 0 mm 3 mps 724 mmHg 51%
    18:00 +23°C° 0 mm 2 mps 724 mmHg 63%
    19:00 +19°C° 0 mm 2 mps 723 mmHg 75%
    20:00 +18°C° 0 mm 1 mps 724 mmHg 79%
    21:00 +16°C° 0 mm 1 mps 724 mmHg 84%
    22:00 +14°C° 0 mm 0 mps 724 mmHg 88%
    23:00 +14°C° 0 mm 0 mps 724 mmHg 88%

    Day after tomorrow, 20 July, Saturday

    Time Temperature Precipitation Wind Pressure Humidity
    00:00 +13°C° 0 mm 0 mps 724 mmHg 88%
    01:00 +13°C° 0 mm 0 mps 724 mmHg 88%
    02:00 +13°C° 0 mm 0 mps 724 mmHg 88%
    03:00 +13°C° 0 mm 0 mps 724 mmHg 87%
    04:00 +12°C° 0 mm 0 mps 724 mmHg 86%
    05:00 +15°C° 0 mm 0 mps 724 mmHg 78%
    06:00 +17°C° 0 mm 0 mps 725 mmHg 69%
    07:00 +21°C° 0 mm 1 mps 725 mmHg 60%
    08:00 +24°C° 0 mm 1 mps 725 mmHg 53%
    09:00 +26°C° 0 mm 2 mps 726 mmHg 45%
    10:00 +28°C° 0 mm 2 mps 726 mmHg 38%
    11:00 +29°C° 0 mm 3 mps 726 mmHg 37%
    12:00 +30°C° 0 mm 3 mps 725 mmHg 35%
    13:00 +32°C° 0 mm 4 mps 725 mmHg 34%
    14:00 +32°C° 0 mm 4 mps 724 mmHg 35%
    15:00 +30°C° 0 mm 3 mps 724 mmHg 36%
    16:00 +30°C° 0 mm 3 mps 724 mmHg 37%
    17:00 +27°C° 0 mm 3 mps 724 mmHg 47%
    18:00 +24°C° 0 mm 2 mps 723 mmHg 56%
    19:00 +21°C° 0 mm 1 mps 723 mmHg 65%
    20:00 +20°C° 0 mm 1 mps 723 mmHg 70%
    21:00 +17°C° 0 mm 0 mps 724 mmHg 75%
    22:00 +16°C° 0 mm 0 mps 724 mmHg 80%
    23:00 +16°C° 0 mm 0 mps 724 mmHg 81%

    21 July, Sunday

    Time Temperature Precipitation Wind Pressure Humidity
    00:00 +15°C° 0 mm 0 mps 724 mmHg 82%
    01:00 +15°C° 0 mm 0 mps 724 mmHg 83%
    02:00 +15°C° 0 mm 0 mps 724 mmHg 82%
    03:00 +15°C° 0 mm 0 mps 723 mmHg 82%
    04:00 +15°C° 0 mm 0 mps 723 mmHg 81%
    05:00 +17°C° 0 mm 0 mps 724 mmHg 70%
    06:00 +20°C° 0 mm 0 mps 725 mmHg 58%
    07:00 +23°C° 0 mm 0 mps 725 mmHg 47%
    08:00 +28°C° 0 mm 1 mps 725 mmHg 41%
    09:00 +30°C° 0 mm 2 mps 726 mmHg 35%
    10:00 +32°C° 0 mm 2 mps 726 mmHg 29%
    11:00 +34°C° 0 mm 3 mps 726 mmHg 28%
    12:00 +35°C° 0 mm 3 mps 726 mmHg 27%
    13:00 +36°C° 0 mm 4 mps 726 mmHg 27%
    14:00 +35°C° 0 mm 3 mps 725 mmHg 29%
    15:00 +34°C° 0 mm 3 mps 725 mmHg 31%
    16:00 +34°C° 0 mm 3 mps 725 mmHg 34%
    17:00 +29°C° 0 mm 2 mps 724 mmHg 44%
    18:00 +26°C° 0 mm 1 mps 724 mmHg 55%
    19:00 +22°C° 0 mm 1 mps 724 mmHg 66%
    20:00 +22°C° 0 mm 1 mps 724 mmHg 69%
    21:00 +19°C° 0 mm 0 mps 724 mmHg 72%
    22:00 +18°C° 0 mm 0 mps 725 mmHg 74%
    23:00 +18°C° 0 mm 0 mps 725 mmHg 75%

    22 July, Monday

    Time Temperature Precipitation Wind Pressure Humidity
    00:00 +17°C° 0 mm 0 mps 725 mmHg 77%
    01:00 +17°C° 0 mm 0 mps 725 mmHg 78%
    02:00 +17°C° 0 mm 0 mps 725 mmHg 79%
    03:00 +17°C° 0 mm 0 mps 725 mmHg 79%
    04:00 +17°C° 0 mm 0 mps 725 mmHg 79%
    05:00 +19°C° 0 mm 0 mps 726 mmHg 68%
    06:00 +22°C° 0 mm 0 mps 726 mmHg 56%
    07:00 +27°C° 0 mm 1 mps 727 mmHg 44%
    08:00 +29°C° 0 mm 1 mps 727 mmHg 41%
    09:00 +31°C° 0 mm 2 mps 727 mmHg 37%
    10:00 +34°C° 0 mm 3 mps 727 mmHg 34%
    11:00 +35°C° 0.2 mm 3 mps 727 mmHg 33%
    12:00 +35°C° 0.2 mm 3 mps 727 mmHg 33%
    13:00 +35°C° 0.2 mm 3 mps 727 mmHg 32%
    14:00 +35°C° 0.1 mm 3 mps 726 mmHg 32%
    15:00 +35°C° 0.1 mm 3 mps 726 mmHg 32%
    16:00 +34°C° 0.1 mm 3 mps 725 mmHg 31%
    17:00 +30°C° 0 mm 2 mps 725 mmHg 40%
    18:00 +27°C° 0 mm 1 mps 726 mmHg 48%
    19:00 +24°C° 0 mm 1 mps 726 mmHg 57%
    20:00 +22°C° 0 mm 0 mps 726 mmHg 59%
    21:00 +21°C° 0 mm 0 mps 726 mmHg 60%
    22:00 +21°C° 0 mm 0 mps 727 mmHg 62%
    23:00 +20°C° 0 mm 0 mps 727 mmHg 62%

    23 July, Tuesday

    Time Temperature Precipitation Wind Pressure Humidity
    00:00 +20°C° 0 mm 0 mps 726 mmHg 62%
    01:00 +20°C° 0 mm 0 mps 726 mmHg 62%
    02:00 +20°C° 0 mm 0 mps 726 mmHg 60%
    03:00 +20°C° 0 mm 0 mps 726 mmHg 59%
    04:00 +20°C° 0 mm 0 mps 726 mmHg 57%
    05:00 +23°C° 0 mm 0 mps 727 mmHg 50%
    06:00 +25°C° 0 mm 0 mps 727 mmHg 43%
    07:00 +28°C° 0 mm 0 mps 727 mmHg 36%
    08:00 +32°C° 0 mm 1 mps 728 mmHg 33%
    09:00 +35°C° 0 mm 2 mps 728 mmHg 29%
    10:00 +37°C° 0 mm 2 mps 728 mmHg 25%
    11:00 +37°C° 0.5 mm 3 mps 728 mmHg 26%
    12:00 +37°C° 0.5 mm 3 mps 727 mmHg 28%
    13:00 +37°C° 0.5 mm 4 mps 727 mmHg 29%
    14:00 +37°C° 0 mm 4 mps 727 mmHg 29%
    15:00 +36°C° 0 mm 4 mps 726 mmHg 29%
    16:00 +36°C° 0 mm 4 mps 726 mmHg 30%
    17:00 +33°C° 0 mm 3 mps 726 mmHg 36%
    18:00 +29°C° 0 mm 2 mps 726 mmHg 42%
    19:00 +27°C° 0 mm 1 mps 726 mmHg 48%
    20:00 +26°C° 0 mm 1 mps 726 mmHg 49%
    21:00 +24°C° 0 mm 0 mps 726 mmHg 50%
    22:00 +23°C° 0 mm 0 mps 726 mmHg 51%
    23:00 +23°C° 0 mm 0 mps 726 mmHg 52%
    Show more